Time,TemperatureF,DewpointF,PressureIn,WindDirection,WindDirectionDegrees,WindSpeedMPH,WindSpeedGustMPH,Humidity,HourlyPrecipIn,Conditions,Clouds,dailyrainin,SoftwareType,DateUTC
2013-04-20 00:10:00,48.7,41.0,30.41,SW,219,0.0,-999.0,74,-99.99,,,0.00,weatherlink.com 1.10,2013-04-19 23:10:00,
2013-04-20 00:25:00,48.5,41.0,30.41,SW,219,0.0,-999.0,74,-99.99,,,0.00,weatherlink.com 1.10,2013-04-19 23:25:00,
2013-04-20 00:40:00,48.2,40.0,30.41,SW,219,0.0,-999.0,74,-99.99,,,0.00,weatherlink.com 1.10,2013-04-19 23:40:00,
2013-04-20 00:55:00,47.8,40.0,30.41,SW,219,0.0,-999.0,74,-99.99,,,0.00,weatherlink.com 1.10,2013-04-19 23:55:00,
2013-04-20 01:10:00,47.4,40.0,30.41,SW,219,0.0,-999.0,75,-99.99,,,0.00,weatherlink.com 1.10,2013-04-20 00:10:00,
2013-04-20 01:25:00,46.9,39.0,30.41,SW,219,0.0,-999.0,75,-99.99,,,0.00,weatherlink.com 1.10,2013-04-20 00:25:00,
2013-04-20 01:40:00,46.6,39.0,30.41,SW,219,0.0,-999.0,75,-99.99,,,0.00,weatherlink.com 1.10,2013-04-20 00:40:00,
2013-04-20 01:55:00,46.3,39.0,30.41,SW,219,0.0,-999.0,76,-99.99,,,0.00,weatherlink.com 1.10,2013-04-20 00:55:00,
2013-04-20 02:10:00,46.2,39.0,30.41,SW,219,0.0,-999.0,76,-99.99,,,0.00,weatherlink.com 1.10,2013-04-20 01:10:00,
2013-04-20 02:25:00,45.9,39.0,30.41,SW,219,0.0,-999.0,77,-99.99,,,0.00,weatherlink.com 1.10,2013-04-20 01:25:00,
2013-04-20 02:40:00,45.4,39.0,30.40,SW,219,0.0,-999.0,78,-99.99,,,0.00,weatherlink.com 1.10,2013-04-20 01:40:00,
2013-04-20 02:55:00,45.2,39.0,30.40,SW,219,0.0,-999.0,79,-99.99,,,0.00,weatherlink.com 1.10,2013-04-20 01:55:00,
2013-04-20 03:10:00,44.8,39.0,30.40,SW,219,0.0,-999.0,79,-99.99,,,0.00,weatherlink.com 1.10,2013-04-20 02:10:00,
2013-04-20 03:26:00,44.3,39.0,30.40,SW,219,0.0,-999.0,81,-99.99,,,0.00,weatherlink.com 1.10,2013-04-20 02:26:00,
2013-04-20 03:40:00,43.9,38.0,30.40,SW,219,0.0,-999.0,81,-99.99,,,0.00,weatherlink.com 1.10,2013-04-20 02:40:00,
2013-04-20 03:55:00,43.5,38.0,30.40,SW,219,0.0,-999.0,82,-99.99,,,0.00,weatherlink.com 1.10,2013-04-20 02:55:00,
2013-04-20 04:10:00,43.3,39.0,30.40,SW,219,0.0,-999.0,83,-99.99,,,0.00,weatherlink.com 1.10,2013-04-20 03:10:00,
2013-04-20 04:25:00,43.6,39.0,30.40,SW,220,0.0,-999.0,83,-99.99,,,0.00,weatherlink.com 1.10,2013-04-20 03:25:00,
2013-04-20 04:40:00,43.8,39.0,30.39,SW,219,0.0,-999.0,83,-99.99,,,0.00,weatherlink.com 1.10,2013-04-20 03:40:00,
2013-04-20 04:55:00,43.7,39.0,30.39,SW,220,0.0,-999.0,82,-99.99,,,0.00,weatherlink.com 1.10,2013-04-20 03:55:00,
2013-04-20 05:10:00,43.4,39.0,30.39,SW,219,0.0,-999.0,83,-99.99,,,0.00,weatherlink.com 1.10,2013-04-20 04:10:00,
2013-04-20 05:25:00,42.9,38.0,30.38,SW,219,0.0,-999.0,83,-99.99,,,0.00,weatherlink.com 1.10,2013-04-20 04:25:00,
2013-04-20 05:40:00,42.4,38.0,30.38,SW,219,0.0,-999.0,84,-99.99,,,0.00,weatherlink.com 1.10,2013-04-20 04:40:00,
2013-04-20 05:55:00,42.1,38.0,30.38,SW,219,0.0,-999.0,85,-99.99,,,0.00,weatherlink.com 1.10,2013-04-20 04:55:00,
2013-04-20 06:10:00,42.2,38.0,30.39,SW,219,0.0,-999.0,85,-99.99,,,0.00,weatherlink.com 1.10,2013-04-20 05:10:00,
2013-04-20 06:25:00,42.4,38.0,30.38,SW,219,0.0,-999.0,85,-99.99,,,0.00,weatherlink.com 1.10,2013-04-20 05:25:00,
2013-04-20 06:40:00,42.6,38.0,30.38,SW,219,0.0,-999.0,85,-99.99,,,0.00,weatherlink.com 1.10,2013-04-20 05:40:00,
2013-04-20 06:55:00,42.4,38.0,30.38,SW,219,0.0,-999.0,85,-99.99,,,0.00,weatherlink.com 1.10,2013-04-20 05:55:00,
2013-04-20 07:10:00,42.5,38.0,30.39,SW,219,0.0,-999.0,85,-99.99,,,0.00,weatherlink.com 1.10,2013-04-20 06:10:00,
2013-04-20 07:25:00,42.5,38.0,30.39,SW,219,0.0,-999.0,85,-99.99,,,0.00,weatherlink.com 1.10,2013-04-20 06:25:00,
2013-04-20 07:40:00,42.8,39.0,30.39,SW,219,0.0,-999.0,86,-99.99,,,0.00,weatherlink.com 1.10,2013-04-20 06:40:00,
2013-04-20 07:55:00,43.8,39.0,30.39,SW,226,0.0,-999.0,84,-99.99,,,0.00,weatherlink.com 1.10,2013-04-20 06:55:00,
2013-04-20 08:10:00,44.5,39.0,30.39,WNW,297,0.0,-999.0,81,-99.99,,,0.00,weatherlink.com 1.10,2013-04-20 07:10:00,
2013-04-20 08:25:00,45.2,39.0,30.39,NW,304,0.0,-999.0,80,-99.99,,,0.00,weatherlink.com 1.10,2013-04-20 07:25:00,
2013-04-20 08:40:00,46.1,40.0,30.39,NW,308,0.0,-999.0,78,-99.99,,,0.00,weatherlink.com 1.10,2013-04-20 07:40:00,
2013-04-20 08:55:00,46.9,40.0,30.39,WNW,302,0.0,-999.0,78,-99.99,,,0.00,weatherlink.com 1.10,2013-04-20 07:55:00,
2013-04-20 09:10:00,48.7,41.0,30.38,WSW,256,0.0,-999.0,74,-99.99,,,0.00,weatherlink.com 1.10,2013-04-20 08:10:00,
2013-04-20 09:25:00,51.0,41.0,30.38,SW,229,0.0,-999.0,68,-99.99,,,0.00,weatherlink.com 1.10,2013-04-20 08:25:00,
2013-04-20 09:40:00,52.2,41.0,30.38,West,265,0.0,-999.0,66,-99.99,,,0.00,weatherlink.com 1.10,2013-04-20 08:40:00,
2013-04-20 09:55:00,52.9,40.0,30.38,SSW,213,0.0,-999.0,63,-99.99,,,0.00,weatherlink.com 1.10,2013-04-20 08:55:00,
2013-04-20 10:10:00,53.6,39.0,30.38,SW,232,0.0,-999.0,58,-99.99,,,0.00,weatherlink.com 1.10,2013-04-20 09:10:00,
2013-04-20 10:25:00,53.8,40.0,30.37,West,263,0.0,-999.0,59,-99.99,,,0.00,weatherlink.com 1.10,2013-04-20 09:25:00,
2013-04-20 10:40:00,54.2,39.0,30.37,SW,232,0.0,-999.0,57,-99.99,,,0.00,weatherlink.com 1.10,2013-04-20 09:40:00,
2013-04-20 10:56:00,54.9,39.0,30.37,SSW,208,0.0,-999.0,56,-99.99,,,0.00,weatherlink.com 1.10,2013-04-20 09:56:00,
2013-04-20 11:11:00,55.0,40.0,30.36,SSW,208,0.0,-999.0,57,-99.99,,,0.00,weatherlink.com 1.10,2013-04-20 10:11:00,
2013-04-20 11:26:00,55.6,39.0,30.36,SW,220,0.0,-999.0,54,-99.99,,,0.00,weatherlink.com 1.10,2013-04-20 10:26:00,
2013-04-20 11:41:00,55.7,39.0,30.36,SW,225,0.0,-999.0,54,-99.99,,,0.00,weatherlink.com 1.10,2013-04-20 10:41:00,
2013-04-20 11:56:00,55.3,39.0,30.35,West,267,0.0,-999.0,54,-99.99,,,0.00,weatherlink.com 1.10,2013-04-20 10:56:00,
2013-04-20 12:11:00,55.1,39.0,30.35,WSW,241,0.0,-999.0,54,-99.99,,,0.00,weatherlink.com 1.10,2013-04-20 11:11:00,
2013-04-20 12:26:00,55.5,38.0,30.34,SW,230,0.0,-999.0,52,-99.99,,,0.00,weatherlink.com 1.10,2013-04-20 11:26:00,
2013-04-20 12:41:00,56.1,37.0,30.34,WSW,242,0.0,-999.0,50,-99.99,,,0.00,weatherlink.com 1.10,2013-04-20 11:41:00,
2013-04-20 12:56:00,57.1,38.0,30.34,SW,227,0.0,-999.0,49,-99.99,,,0.00,weatherlink.com 1.10,2013-04-20 11:56:00,
2013-04-20 13:11:00,57.4,38.0,30.34,SSW,207,0.0,-999.0,48,-99.99,,,0.00,weatherlink.com 1.10,2013-04-20 12:11:00,
2013-04-20 13:26:00,57.8,39.0,30.32,SSW,205,0.0,-999.0,49,-99.99,,,0.00,weatherlink.com 1.10,2013-04-20 12:26:00,
2013-04-20 13:41:00,58.1,38.0,30.32,WSW,252,0.0,-999.0,48,-99.99,,,0.00,weatherlink.com 1.10,2013-04-20 12:41:00,
2013-04-20 13:56:00,58.1,38.0,30.32,SW,216,0.0,-999.0,48,-99.99,,,0.00,weatherlink.com 1.10,2013-04-20 12:56:00,
2013-04-20 14:11:00,57.2,39.0,30.31,WNW,289,0.0,-999.0,50,-99.99,,,0.00,weatherlink.com 1.10,2013-04-20 13:11:00,
2013-04-20 14:26:00,57.6,39.0,30.30,WSW,239,0.0,-999.0,51,-99.99,,,0.00,weatherlink.com 1.10,2013-04-20 13:26:00,
2013-04-20 14:41:00,57.9,39.0,30.30,WSW,252,0.0,-999.0,49,-99.99,,,0.00,weatherlink.com 1.10,2013-04-20 13:41:00,
2013-04-20 14:56:00,57.0,39.0,30.30,SW,215,0.0,-999.0,51,-99.99,,,0.00,weatherlink.com 1.10,2013-04-20 13:56:00,
2013-04-20 15:11:00,56.9,39.0,30.29,SSW,207,0.0,-999.0,52,-99.99,,,0.00,weatherlink.com 1.10,2013-04-20 14:11:00,
2013-04-20 15:26:00,57.1,39.0,30.29,SW,225,0.0,-999.0,51,-99.99,,,0.00,weatherlink.com 1.10,2013-04-20 14:26:00,
2013-04-20 15:41:00,56.7,39.0,30.28,WSW,252,0.0,-999.0,52,-99.99,,,0.00,weatherlink.com 1.10,2013-04-20 14:41:00,
2013-04-20 15:56:00,57.1,39.0,30.27,WSW,242,0.0,-999.0,51,-99.99,,,0.00,weatherlink.com 1.10,2013-04-20 14:56:00,
2013-04-20 16:11:00,56.1,39.0,30.27,WSW,246,0.0,-999.0,54,-99.99,,,0.00,weatherlink.com 1.10,2013-04-20 15:11:00,
2013-04-20 16:26:00,55.9,40.0,30.26,SW,236,0.0,-999.0,55,-99.99,,,0.00,weatherlink.com 1.10,2013-04-20 15:26:00,
2013-04-20 16:41:00,55.7,40.0,30.26,WSW,246,0.0,-999.0,57,-99.99,,,0.00,weatherlink.com 1.10,2013-04-20 15:41:00,
2013-04-20 16:56:00,55.7,40.0,30.25,WSW,248,0.0,-999.0,57,-99.99,,,0.00,weatherlink.com 1.10,2013-04-20 15:56:00,
2013-04-20 17:11:00,55.3,41.0,30.25,WSW,257,0.0,-999.0,58,-99.99,,,0.00,weatherlink.com 1.10,2013-04-20 16:11:00,
2013-04-20 17:26:00,55.1,41.0,30.25,SW,236,0.0,-999.0,59,-99.99,,,0.00,weatherlink.com 1.10,2013-04-20 16:26:00,
2013-04-20 17:41:00,54.8,41.0,30.25,SW,219,0.0,-999.0,61,-99.99,,,0.00,weatherlink.com 1.10,2013-04-20 16:41:00,
2013-04-20 17:56:00,54.5,41.0,30.24,West,259,0.0,-999.0,61,-99.99,,,0.00,weatherlink.com 1.10,2013-04-20 16:56:00,
2013-04-20 18:11:00,54.4,42.0,30.23,WSW,248,0.0,-999.0,63,-99.99,,,0.00,weatherlink.com 1.10,2013-04-20 17:11:00,
2013-04-20 18:26:00,54.1,42.0,30.23,SW,230,0.0,-999.0,63,-99.99,,,0.00,weatherlink.com 1.10,2013-04-20 17:26:00,
2013-04-20 18:41:00,54.0,42.0,30.23,WSW,244,0.0,-999.0,64,-99.99,,,0.00,weatherlink.com 1.10,2013-04-20 17:41:00,
2013-04-20 18:56:00,53.5,42.0,30.23,SW,214,0.0,-999.0,65,-99.99,,,0.00,weatherlink.com 1.10,2013-04-20 17:56:00,
2013-04-20 19:11:00,53.0,42.0,30.22,SW,229,0.0,-999.0,66,-99.99,,,0.00,weatherlink.com 1.10,2013-04-20 18:11:00,
2013-04-20 19:26:00,52.9,42.0,30.22,SSW,200,0.0,-999.0,66,-99.99,,,0.00,weatherlink.com 1.10,2013-04-20 18:26:00,
2013-04-20 19:41:00,52.8,42.0,30.22,SW,227,0.0,-999.0,66,-99.99,,,0.00,weatherlink.com 1.10,2013-04-20 18:41:00,
2013-04-20 19:56:00,52.4,42.0,30.21,SW,221,0.0,-999.0,67,-99.99,,,0.00,weatherlink.com 1.10,2013-04-20 18:56:00,
2013-04-20 20:11:00,52.0,41.0,30.22,SW,216,0.0,-999.0,67,-99.99,,,0.00,weatherlink.com 1.10,2013-04-20 19:11:00,
2013-04-20 20:27:00,51.5,41.0,30.21,SSW,205,0.0,-999.0,68,-99.99,,,0.00,weatherlink.com 1.10,2013-04-20 19:27:00,
2013-04-20 20:42:00,51.0,41.0,30.21,SW,217,0.0,-999.0,69,-99.99,,,0.00,weatherlink.com 1.10,2013-04-20 19:42:00,
2013-04-20 20:57:00,50.5,41.0,30.21,SSW,192,0.0,-999.0,70,-99.99,,,0.00,weatherlink.com 1.10,2013-04-20 19:57:00,
2013-04-20 21:12:00,50.3,41.0,30.20,WSW,244,0.0,-999.0,70,-99.99,,,0.00,weatherlink.com 1.10,2013-04-20 20:12:00,
2013-04-20 21:27:00,50.1,41.0,30.21,SSW,207,0.0,-999.0,72,-99.99,,,0.00,weatherlink.com 1.10,2013-04-20 20:27:00,
2013-04-20 21:42:00,49.9,41.0,30.20,SW,217,0.0,-999.0,72,-99.99,,,0.00,weatherlink.com 1.10,2013-04-20 20:42:00,
2013-04-20 21:57:00,49.7,41.0,30.20,WSW,248,0.0,-999.0,72,-99.99,,,0.00,weatherlink.com 1.10,2013-04-20 20:57:00,
2013-04-20 22:12:00,49.4,41.0,30.19,SW,230,0.0,-999.0,72,-99.99,,,0.00,weatherlink.com 1.10,2013-04-20 21:12:00,
2013-04-20 22:27:00,49.0,41.0,30.19,SSW,209,0.0,-999.0,73,-99.99,,,0.00,weatherlink.com 1.10,2013-04-20 21:27:00,
2013-04-20 22:42:00,48.8,41.0,30.18,SW,225,0.0,-999.0,74,-99.99,,,0.00,weatherlink.com 1.10,2013-04-20 21:42:00,
2013-04-20 22:57:00,48.8,41.0,30.18,SW,214,0.0,-999.0,74,-99.99,,,0.00,weatherlink.com 1.10,2013-04-20 21:57:00,
2013-04-20 23:12:00,48.7,41.0,30.18,WSW,240,0.0,-999.0,74,-99.99,,,0.00,weatherlink.com 1.10,2013-04-20 22:12:00,
2013-04-20 23:27:00,48.6,41.0,30.17,SSW,209,0.0,-999.0,74,-99.99,,,0.00,weatherlink.com 1.10,2013-04-20 22:27:00,
2013-04-20 23:42:00,48.6,41.0,30.16,SW,225,0.0,-999.0,74,-99.99,,,0.00,weatherlink.com 1.10,2013-04-20 22:42:00,
2013-04-20 23:57:00,48.4,40.0,30.16,SSW,207,0.0,-999.0,73,-99.99,,,0.00,weatherlink.com 1.10,2013-04-20 22:57:00,